owner,sensor,date,latitude,longitude,vertical_datum,sea_water_temperature,qcFlag
BP,ioos:station:wmo:42369:1,2021-10-01T00:19:00Z,27.2134,-90.2731,2.0,29.4,11111222
BP,ioos:station:wmo:42369:1,2021-10-01T00:39:00Z,27.2134,-90.2731,2.0,29.4,11111222
BP,ioos:station:wmo:42369:1,2021-10-01T00:59:00Z,27.2135,-90.2732,2.0,29.4,11111222
BP,ioos:station:wmo:42369:1,2021-10-01T01:19:00Z,27.2135,-90.2732,2.0,29.4,11111222
BP,ioos:station:wmo:42369:1,2021-10-01T01:39:00Z,27.2135,-90.2732,2.0,29.4,11111222
BP,ioos:station:wmo:42369:1,2021-10-01T01:59:00Z,27.2135,-90.2733,2.0,29.4,11111222
BP,ioos:station:wmo:42369:1,2021-10-01T02:19:00Z,27.2136,-90.2734,2.0,29.4,11111222
BP,ioos:station:wmo:42369:1,2021-10-01T02:39:00Z,27.2136,-90.2734,2.0,29.4,11111222
BP,ioos:station:wmo:42369:1,2021-10-01T02:59:00Z,27.2136,-90.2734,2.0,29.4,11111222
BP,ioos:station:wmo:42369:1,2021-10-01T03:19:00Z,27.2136,-90.2734,2.0,29.3,11111222
BP,ioos:station:wmo:42369:1,2021-10-01T03:39:00Z,27.2135,-90.2733,2.0,29.3,11111222
BP,ioos:station:wmo:42369:1,2021-10-01T03:59:00Z,27.2135,-90.2733,2.0,29.3,11111222
BP,ioos:station:wmo:42369:1,2021-10-01T04:19:00Z,27.2135,-90.2734,2.0,29.3,11111222
BP,ioos:station:wmo:42369:1,2021-10-01T04:39:00Z,27.2135,-90.2733,2.0,29.3,11111222
BP,ioos:station:wmo:42369:1,2021-10-01T04:59:00Z,27.2136,-90.2734,2.0,29.3,11111222
BP,ioos:station:wmo:42369:1,2021-10-01T05:19:00Z,27.2136,-90.2735,2.0,29.3,11111222
BP,ioos:station:wmo:42369:1,2021-10-01T05:39:00Z,27.2136,-90.2735,2.0,29.3,11111222
BP,ioos:station:wmo:42369:1,2021-10-01T05:59:00Z,27.2137,-90.2735,2.0,29.3,11111222
BP,ioos:station:wmo:42369:1,2021-10-01T06:19:00Z,27.2137,-90.2736,2.0,29.3,11111222
BP,ioos:station:wmo:42369:1,2021-10-01T06:39:00Z,27.2137,-90.2736,2.0,29.3,11111222
BP,ioos:station:wmo:42369:1,2021-10-01T06:59:00Z,27.2137,-90.2736,2.0,29.3,11111222
BP,ioos:station:wmo:42369:1,2021-10-01T07:19:00Z,27.2137,-90.2736,2.0,29.3,11111222
BP,ioos:station:wmo:42369:1,2021-10-01T07:39:00Z,27.2137,-90.2736,2.0,29.3,11111222
BP,ioos:station:wmo:42369:1,2021-10-01T07:59:00Z,27.2137,-90.2736,2.0,29.3,11111222
BP,ioos:station:wmo:42369:1,2021-10-01T08:19:00Z,27.2138,-90.2736,2.0,29.3,11111222
BP,ioos:station:wmo:42369:1,2021-10-01T08:39:00Z,27.2138,-90.2736,2.0,29.3,11111222
BP,ioos:station:wmo:42369:1,2021-10-01T08:59:00Z,27.2138,-90.2737,2.0,29.3,11111222
BP,ioos:station:wmo:42369:1,2021-10-01T09:19:00Z,27.2140,-90.2738,2.0,29.3,11111222
BP,ioos:station:wmo:42369:1,2021-10-01T09:39:00Z,27.2140,-90.2739,2.0,29.3,11111222
BP,ioos:station:wmo:42369:1,2021-10-01T09:59:00Z,27.2140,-90.2739,2.0,29.3,11111222
BP,ioos:station:wmo:42369:1,2021-10-01T10:19:00Z,27.2141,-90.2739,2.0,29.4,11111222
BP,ioos:station:wmo:42369:1,2021-10-01T10:39:00Z,27.2141,-90.2740,2.0,29.4,11111222
BP,ioos:station:wmo:42369:1,2021-10-01T10:59:00Z,27.2141,-90.2739,2.0,29.4,11111222
BP,ioos:station:wmo:42369:1,2021-10-01T11:19:00Z,27.2141,-90.2740,2.0,29.4,11111222
BP,ioos:station:wmo:42369:1,2021-10-01T11:39:00Z,27.2141,-90.2740,2.0,29.4,11111222
BP,ioos:station:wmo:42369:1,2021-10-01T11:59:00Z,27.2142,-90.2740,2.0,29.4,11111222
BP,ioos:station:wmo:42369:1,2021-10-01T12:19:00Z,27.2142,-90.2740,2.0,29.4,11111222
BP,ioos:station:wmo:42369:1,2021-10-01T12:39:00Z,27.2142,-90.2741,2.0,29.4,11111222
BP,ioos:station:wmo:42369:1,2021-10-01T12:59:00Z,27.2142,-90.2740,2.0,29.4,11111222
BP,ioos:station:wmo:42369:1,2021-10-01T13:19:00Z,27.2142,-90.2740,2.0,29.4,11111222
BP,ioos:station:wmo:42369:1,2021-10-01T13:39:00Z,27.2142,-90.2740,2.0,29.4,11111222
BP,ioos:station:wmo:42369:1,2021-10-01T13:59:00Z,27.2142,-90.2740,2.0,29.4,11111222
BP,ioos:station:wmo:42369:1,2021-10-01T14:19:00Z,27.2142,-90.2741,2.0,29.4,11111222
BP,ioos:station:wmo:42369:1,2021-10-01T14:39:00Z,27.2143,-90.2741,2.0,29.4,11111222
BP,ioos:station:wmo:42369:1,2021-10-01T14:59:00Z,27.2143,-90.2741,2.0,29.4,11111222
BP,ioos:station:wmo:42369:1,2021-10-01T15:19:00Z,27.2143,-90.2741,2.0,29.4,11111222
BP,ioos:station:wmo:42369:1,2021-10-01T15:39:00Z,27.2143,-90.2741,2.0,29.4,11111222
BP,ioos:station:wmo:42369:1,2021-10-01T15:59:00Z,27.2144,-90.2741,2.0,29.4,11111222
BP,ioos:station:wmo:42369:1,2021-10-01T16:19:00Z,27.2143,-90.2740,2.0,29.4,11111222
BP,ioos:station:wmo:42369:1,2021-10-01T16:39:00Z,27.2143,-90.2740,2.0,29.4,11111222
BP,ioos:station:wmo:42369:1,2021-10-01T16:59:00Z,27.2143,-90.2739,2.0,29.4,11111222
BP,ioos:station:wmo:42369:1,2021-10-01T17:19:00Z,27.2143,-90.2739,2.0,29.4,11111222
BP,ioos:station:wmo:42369:1,2021-10-01T17:39:00Z,27.2143,-90.2739,2.0,29.5,11111222
BP,ioos:station:wmo:42369:1,2021-10-01T17:59:00Z,27.2142,-90.2738,2.0,29.5,11111222
BP,ioos:station:wmo:42369:1,2021-10-01T18:19:00Z,27.2142,-90.2738,2.0,29.5,11111222
BP,ioos:station:wmo:42369:1,2021-10-01T18:39:00Z,27.2142,-90.2738,2.0,29.5,11111222
BP,ioos:station:wmo:42369:1,2021-10-01T18:59:00Z,27.2142,-90.2738,2.0,29.5,11111222
BP,ioos:station:wmo:42369:1,2021-10-01T19:19:00Z,27.2142,-90.2738,2.0,29.5,11111222
BP,ioos:station:wmo:42369:1,2021-10-01T19:39:00Z,27.2141,-90.2737,2.0,29.5,11111222
BP,ioos:station:wmo:42369:1,2021-10-01T19:59:00Z,27.2141,-90.2737,2.0,29.5,11111222
BP,ioos:station:wmo:42369:1,2021-10-01T20:19:00Z,27.2141,-90.2736,2.0,29.5,11111222
BP,ioos:station:wmo:42369:1,2021-10-01T20:39:00Z,27.2140,-90.2736,2.0,29.5,11111222
BP,ioos:station:wmo:42369:1,2021-10-01T20:59:00Z,27.2140,-90.2736,2.0,29.5,11111222
BP,ioos:station:wmo:42369:1,2021-10-01T21:19:00Z,27.2140,-90.2736,2.0,29.5,11111222
BP,ioos:station:wmo:42369:1,2021-10-01T21:39:00Z,27.2140,-90.2736,2.0,29.5,11111222
BP,ioos:station:wmo:42369:1,2021-10-01T21:59:00Z,27.2140,-90.2736,2.0,29.5,11111222
BP,ioos:station:wmo:42369:1,2021-10-01T22:19:00Z,27.2139,-90.2735,2.0,29.5,11111222
BP,ioos:station:wmo:42369:1,2021-10-01T22:39:00Z,27.2139,-90.2735,2.0,29.4,11111222
BP,ioos:station:wmo:42369:1,2021-10-01T22:59:00Z,27.2139,-90.2735,2.0,29.4,11111222
BP,ioos:station:wmo:42369:1,2021-10-01T23:19:00Z,27.2139,-90.2735,2.0,29.4,11111222
BP,ioos:station:wmo:42369:1,2021-10-01T23:39:00Z,27.2139,-90.2735,2.0,29.4,11111222
BP,ioos:station:wmo:42369:1,2021-10-01T23:59:00Z,27.2139,-90.2735,2.0,29.4,11111222
BP,ioos:station:wmo:42369:1,2021-10-02T00:19:00Z,27.2139,-90.2735,2.0,29.4,11111222
BP,ioos:station:wmo:42369:1,2021-10-02T00:39:00Z,27.2139,-90.2735,2.0,29.4,11111222
BP,ioos:station:wmo:42369:1,2021-10-02T00:59:00Z,27.2138,-90.2734,2.0,29.4,11111222
BP,ioos:station:wmo:42369:1,2021-10-02T01:19:00Z,27.2138,-90.2735,2.0,29.4,11111222
BP,ioos:station:wmo:42369:1,2021-10-02T01:39:00Z,27.2138,-90.2735,2.0,29.4,11111222
BP,ioos:station:wmo:42369:1,2021-10-02T01:59:00Z,27.2138,-90.2735,2.0,29.4,11111222
BP,ioos:station:wmo:42369:1,2021-10-02T02:19:00Z,27.2138,-90.2735,2.0,29.4,11111222
BP,ioos:station:wmo:42369:1,2021-10-02T02:39:00Z,27.2137,-90.2735,2.0,29.4,11111222
BP,ioos:station:wmo:42369:1,2021-10-02T02:59:00Z,27.2137,-90.2735,2.0,29.3,11111222
BP,ioos:station:wmo:42369:1,2021-10-02T03:19:00Z,27.2137,-90.2735,2.0,29.4,11111222
BP,ioos:station:wmo:42369:1,2021-10-02T03:39:00Z,27.2137,-90.2735,2.0,29.4,11111222
BP,ioos:station:wmo:42369:1,2021-10-02T03:59:00Z,27.2137,-90.2735,2.0,29.4,11111222
BP,ioos:station:wmo:42369:1,2021-10-02T04:19:00Z,27.2136,-90.2734,2.0,29.4,11111222
BP,ioos:station:wmo:42369:1,2021-10-02T04:39:00Z,27.2135,-90.2733,2.0,29.4,11111222
BP,ioos:station:wmo:42369:1,2021-10-02T04:59:00Z,27.2134,-90.2733,2.0,29.3,11111222
BP,ioos:station:wmo:42369:1,2021-10-02T05:19:00Z,27.2134,-90.2733,2.0,29.3,11111222
BP,ioos:station:wmo:42369:1,2021-10-02T05:39:00Z,27.2134,-90.2734,2.0,29.3,11111222
BP,ioos:station:wmo:42369:1,2021-10-02T05:59:00Z,27.2134,-90.2734,2.0,29.3,11111222
BP,ioos:station:wmo:42369:1,2021-10-02T06:19:00Z,27.2134,-90.2733,2.0,29.3,11111222
BP,ioos:station:wmo:42369:1,2021-10-02T06:39:00Z,27.2133,-90.2733,2.0,29.3,11111222
BP,ioos:station:wmo:42369:1,2021-10-02T06:59:00Z,27.2133,-90.2733,2.0,29.3,11111222
BP,ioos:station:wmo:42369:1,2021-10-02T07:19:00Z,27.2133,-90.2732,2.0,29.3,11111222
BP,ioos:station:wmo:42369:1,2021-10-02T07:39:00Z,27.2134,-90.2732,2.0,29.3,11111222
BP,ioos:station:wmo:42369:1,2021-10-02T07:59:00Z,27.2134,-90.2732,2.0,29.3,11111222
BP,ioos:station:wmo:42369:1,2021-10-02T08:19:00Z,27.2134,-90.2732,2.0,29.3,11111222
BP,ioos:station:wmo:42369:1,2021-10-02T08:39:00Z,27.2135,-90.2732,2.0,29.3,11111222
BP,ioos:station:wmo:42369:1,2021-10-02T08:59:00Z,27.2135,-90.2732,2.0,29.3,11111222
BP,ioos:station:wmo:42369:1,2021-10-02T09:19:00Z,27.2135,-90.2732,2.0,29.2,11111222
BP,ioos:station:wmo:42369:1,2021-10-02T09:39:00Z,27.2135,-90.2732,2.0,29.2,11111222
BP,ioos:station:wmo:42369:1,2021-10-02T09:59:00Z,27.2136,-90.2733,2.0,29.2,11111222
BP,ioos:station:wmo:42369:1,2021-10-02T10:19:00Z,27.2136,-90.2733,2.0,29.2,11111222
BP,ioos:station:wmo:42369:1,2021-10-02T10:39:00Z,27.2136,-90.2733,2.0,29.2,11111222
BP,ioos:station:wmo:42369:1,2021-10-02T10:59:00Z,27.2136,-90.2733,2.0,29.1,11111222
BP,ioos:station:wmo:42369:1,2021-10-02T11:19:00Z,27.2136,-90.2733,2.0,29.1,11111222
BP,ioos:station:wmo:42369:1,2021-10-02T11:39:00Z,27.2136,-90.2733,2.0,29.1,11111222
BP,ioos:station:wmo:42369:1,2021-10-02T11:59:00Z,27.2137,-90.2734,2.0,29.2,11111222
BP,ioos:station:wmo:42369:1,2021-10-02T12:19:00Z,27.2137,-90.2734,2.0,29.2,11111222
BP,ioos:station:wmo:42369:1,2021-10-02T12:39:00Z,27.2138,-90.2734,2.0,29.3,11111222
BP,ioos:station:wmo:42369:1,2021-10-02T12:59:00Z,27.2138,-90.2734,2.0,29.3,11111222
BP,ioos:station:wmo:42369:1,2021-10-02T13:19:00Z,27.2138,-90.2735,2.0,29.3,11111222
BP,ioos:station:wmo:42369:1,2021-10-02T13:39:00Z,27.2138,-90.2735,2.0,29.3,11111222
BP,ioos:station:wmo:42369:1,2021-10-02T13:59:00Z,27.2138,-90.2735,2.0,29.3,11111222
BP,ioos:station:wmo:42369:1,2021-10-02T14:19:00Z,27.2138,-90.2735,2.0,29.3,11111222
BP,ioos:station:wmo:42369:1,2021-10-02T14:39:00Z,27.2138,-90.2735,2.0,29.3,11111222
BP,ioos:station:wmo:42369:1,2021-10-02T14:59:00Z,27.2138,-90.2735,2.0,29.3,11111222
BP,ioos:station:wmo:42369:1,2021-10-02T15:19:00Z,27.2138,-90.2735,2.0,29.3,11111222
BP,ioos:station:wmo:42369:1,2021-10-02T15:39:00Z,27.2138,-90.2735,2.0,29.3,11111222
BP,ioos:station:wmo:42369:1,2021-10-02T15:59:00Z,27.2138,-90.2735,2.0,29.3,11111222
BP,ioos:station:wmo:42369:1,2021-10-02T16:19:00Z,27.2138,-90.2735,2.0,29.3,11111222
BP,ioos:station:wmo:42369:1,2021-10-02T16:39:00Z,27.2138,-90.2735,2.0,29.3,11111222
BP,ioos:station:wmo:42369:1,2021-10-02T16:59:00Z,27.2138,-90.2735,2.0,29.4,11111222
BP,ioos:station:wmo:42369:1,2021-10-02T17:19:00Z,27.2138,-90.2735,2.0,29.4,11111222
BP,ioos:station:wmo:42369:1,2021-10-02T17:39:00Z,27.2138,-90.2735,2.0,29.4,11111222
BP,ioos:station:wmo:42369:1,2021-10-02T17:59:00Z,27.2138,-90.2735,2.0,29.4,11111222
BP,ioos:station:wmo:42369:1,2021-10-02T18:19:00Z,27.2138,-90.2735,2.0,29.4,11111222
BP,ioos:station:wmo:42369:1,2021-10-02T18:39:00Z,27.2138,-90.2735,2.0,29.4,11111222
BP,ioos:station:wmo:42369:1,2021-10-02T18:59:00Z,27.2138,-90.2735,2.0,29.4,11111222
BP,ioos:station:wmo:42369:1,2021-10-02T19:19:00Z,27.2138,-90.2734,2.0,29.4,11111222
BP,ioos:station:wmo:42369:1,2021-10-02T19:39:00Z,27.2137,-90.2734,2.0,29.4,11111222
BP,ioos:station:wmo:42369:1,2021-10-02T19:59:00Z,27.2137,-90.2734,2.0,29.4,11111222
BP,ioos:station:wmo:42369:1,2021-10-02T20:19:00Z,27.2137,-90.2733,2.0,29.4,11111222
BP,ioos:station:wmo:42369:1,2021-10-02T20:39:00Z,27.2137,-90.2733,2.0,29.4,11111222
BP,ioos:station:wmo:42369:1,2021-10-02T20:59:00Z,27.2136,-90.2732,2.0,29.4,11111222
BP,ioos:station:wmo:42369:1,2021-10-02T21:19:00Z,27.2136,-90.2732,2.0,29.4,11111222
BP,ioos:station:wmo:42369:1,2021-10-02T21:39:00Z,27.2136,-90.2731,2.0,29.4,11111222
BP,ioos:station:wmo:42369:1,2021-10-02T21:59:00Z,27.2135,-90.2731,2.0,29.4,11111222
BP,ioos:station:wmo:42369:1,2021-10-02T22:19:00Z,27.2134,-90.2730,2.0,29.4,11111222
BP,ioos:station:wmo:42369:1,2021-10-02T22:39:00Z,27.2133,-90.2729,2.0,29.5,11111222
BP,ioos:station:wmo:42369:1,2021-10-02T22:59:00Z,27.2133,-90.2729,2.0,29.4,11111222
BP,ioos:station:wmo:42369:1,2021-10-02T23:19:00Z,27.2132,-90.2728,2.0,29.4,11111222
BP,ioos:station:wmo:42369:1,2021-10-02T23:39:00Z,27.2132,-90.2728,2.0,29.4,11111222
BP,ioos:station:wmo:42369:1,2021-10-02T23:59:00Z,27.2131,-90.2728,2.0,29.4,11111222
BP,ioos:station:wmo:42369:1,2021-10-03T00:19:00Z,27.2131,-90.2728,2.0,29.4,11111222
BP,ioos:station:wmo:42369:1,2021-10-03T00:39:00Z,27.2131,-90.2728,2.0,29.4,11111222
BP,ioos:station:wmo:42369:1,2021-10-03T00:59:00Z,27.2131,-90.2728,2.0,29.4,11111222
BP,ioos:station:wmo:42369:1,2021-10-03T01:19:00Z,27.2132,-90.2728,2.0,29.4,11111222
BP,ioos:station:wmo:42369:1,2021-10-03T01:39:00Z,27.2132,-90.2729,2.0,29.4,11111222
BP,ioos:station:wmo:42369:1,2021-10-03T01:59:00Z,27.2132,-90.2729,2.0,29.3,11111222
BP,ioos:station:wmo:42369:1,2021-10-03T02:19:00Z,27.2132,-90.2729,2.0,29.3,11111222
BP,ioos:station:wmo:42369:1,2021-10-03T02:39:00Z,27.2132,-90.2729,2.0,29.3,11111222
BP,ioos:station:wmo:42369:1,2021-10-03T02:59:00Z,27.2132,-90.2729,2.0,29.3,11111222
BP,ioos:station:wmo:42369:1,2021-10-03T03:19:00Z,27.2133,-90.2730,2.0,29.3,11111222
BP,ioos:station:wmo:42369:1,2021-10-03T03:39:00Z,27.2133,-90.2730,2.0,29.3,11111222
BP,ioos:station:wmo:42369:1,2021-10-03T03:59:00Z,27.2134,-90.2730,2.0,29.3,11111222
BP,ioos:station:wmo:42369:1,2021-10-03T04:19:00Z,27.2134,-90.2730,2.0,29.3,11111222
BP,ioos:station:wmo:42369:1,2021-10-03T04:39:00Z,27.2134,-90.2730,2.0,29.4,11111222
BP,ioos:station:wmo:42369:1,2021-10-03T04:59:00Z,27.2134,-90.2730,2.0,29.4,11111222
BP,ioos:station:wmo:42369:1,2021-10-03T05:19:00Z,27.2134,-90.2731,2.0,29.3,11111222
BP,ioos:station:wmo:42369:1,2021-10-03T05:39:00Z,27.2134,-90.2731,2.0,29.4,11111222
BP,ioos:station:wmo:42369:1,2021-10-03T05:59:00Z,27.2134,-90.2731,2.0,29.4,11111222
BP,ioos:station:wmo:42369:1,2021-10-03T06:19:00Z,27.2134,-90.2731,2.0,29.4,11111222
BP,ioos:station:wmo:42369:1,2021-10-03T06:39:00Z,27.2134,-90.2731,2.0,29.4,11111222
BP,ioos:station:wmo:42369:1,2021-10-03T06:59:00Z,27.2134,-90.2731,2.0,29.4,11111222
BP,ioos:station:wmo:42369:1,2021-10-03T07:19:00Z,27.2134,-90.2731,2.0,29.4,11111222
BP,ioos:station:wmo:42369:1,2021-10-03T07:39:00Z,27.2133,-90.2731,2.0,29.4,11111222
BP,ioos:station:wmo:42369:1,2021-10-03T07:59:00Z,27.2133,-90.2731,2.0,29.4,11111222
BP,ioos:station:wmo:42369:1,2021-10-03T08:19:00Z,27.2133,-90.2731,2.0,29.4,11111222
BP,ioos:station:wmo:42369:1,2021-10-03T08:39:00Z,27.2133,-90.2730,2.0,29.4,11111222
BP,ioos:station:wmo:42369:1,2021-10-03T08:59:00Z,27.2132,-90.2730,2.0,29.4,11111222
BP,ioos:station:wmo:42369:1,2021-10-03T09:19:00Z,27.2132,-90.2730,2.0,29.4,11111222
BP,ioos:station:wmo:42369:1,2021-10-03T09:39:00Z,27.2132,-90.2730,2.0,29.4,11111222
BP,ioos:station:wmo:42369:1,2021-10-03T09:59:00Z,27.2132,-90.2730,2.0,29.3,11111222
BP,ioos:station:wmo:42369:1,2021-10-03T10:19:00Z,27.2131,-90.2729,2.0,29.2,11111222
BP,ioos:station:wmo:42369:1,2021-10-03T10:39:00Z,27.2130,-90.2729,2.0,29.2,11111222
BP,ioos:station:wmo:42369:1,2021-10-03T10:59:00Z,27.2130,-90.2729,2.0,29.2,11111222
BP,ioos:station:wmo:42369:1,2021-10-03T11:19:00Z,27.2130,-90.2729,2.0,29.2,11111222
BP,ioos:station:wmo:42369:1,2021-10-03T11:39:00Z,27.2130,-90.2729,2.0,29.2,11111222
BP,ioos:station:wmo:42369:1,2021-10-03T11:59:00Z,27.2130,-90.2730,2.0,29.2,11111222
BP,ioos:station:wmo:42369:1,2021-10-03T12:19:00Z,27.2131,-90.2730,2.0,29.2,11111222
BP,ioos:station:wmo:42369:1,2021-10-03T12:39:00Z,27.2131,-90.2730,2.0,29.2,11111222
BP,ioos:station:wmo:42369:1,2021-10-03T12:59:00Z,27.2131,-90.2730,2.0,29.2,11111222
BP,ioos:station:wmo:42369:1,2021-10-03T13:19:00Z,27.2131,-90.2730,2.0,29.2,11111222
BP,ioos:station:wmo:42369:1,2021-10-03T13:39:00Z,27.2131,-90.2730,2.0,29.2,11111222
BP,ioos:station:wmo:42369:1,2021-10-03T13:59:00Z,27.2131,-90.2730,2.0,29.3,11111222
BP,ioos:station:wmo:42369:1,2021-10-03T14:19:00Z,27.2131,-90.2730,2.0,29.3,11111222
BP,ioos:station:wmo:42369:1,2021-10-03T14:39:00Z,27.2132,-90.2731,2.0,29.3,11111222
BP,ioos:station:wmo:42369:1,2021-10-03T14:59:00Z,27.2132,-90.2731,2.0,29.3,11111222
BP,ioos:station:wmo:42369:1,2021-10-03T15:19:00Z,27.2133,-90.2732,2.0,29.3,11111222
BP,ioos:station:wmo:42369:1,2021-10-03T15:39:00Z,27.2133,-90.2731,2.0,29.2,11111222
BP,ioos:station:wmo:42369:1,2021-10-03T15:59:00Z,27.2133,-90.2731,2.0,29.2,11111222
BP,ioos:station:wmo:42369:1,2021-10-03T16:19:00Z,27.2132,-90.2731,2.0,29.2,11111222
BP,ioos:station:wmo:42369:1,2021-10-03T16:39:00Z,27.2132,-90.2731,2.0,29.2,11111222
BP,ioos:station:wmo:42369:1,2021-10-03T16:59:00Z,27.2132,-90.2731,2.0,29.2,11111222
BP,ioos:station:wmo:42369:1,2021-10-03T17:19:00Z,27.2132,-90.2730,2.0,29.1,11111222
BP,ioos:station:wmo:42369:1,2021-10-03T17:39:00Z,27.2131,-90.2728,2.0,29.1,11111222
BP,ioos:station:wmo:42369:1,2021-10-03T17:59:00Z,27.2130,-90.2728,2.0,29.0,11111222
BP,ioos:station:wmo:42369:1,2021-10-03T18:19:00Z,27.2129,-90.2728,2.0,29.0,11111222
BP,ioos:station:wmo:42369:1,2021-10-03T18:39:00Z,27.2130,-90.2728,2.0,28.9,11111222
BP,ioos:station:wmo:42369:1,2021-10-03T18:59:00Z,27.2130,-90.2728,2.0,28.9,11111222
BP,ioos:station:wmo:42369:1,2021-10-03T19:19:00Z,27.2130,-90.2728,2.0,29.0,11111222
BP,ioos:station:wmo:42369:1,2021-10-03T19:39:00Z,27.2130,-90.2728,2.0,29.0,11111222
BP,ioos:station:wmo:42369:1,2021-10-03T19:59:00Z,27.2130,-90.2728,2.0,29.0,11111222
BP,ioos:station:wmo:42369:1,2021-10-03T20:19:00Z,27.2129,-90.2727,2.0,29.0,11111222
BP,ioos:station:wmo:42369:1,2021-10-03T20:39:00Z,27.2129,-90.2727,2.0,29.1,11111222
BP,ioos:station:wmo:42369:1,2021-10-03T20:59:00Z,27.2129,-90.2727,2.0,29.1,11111222
BP,ioos:station:wmo:42369:1,2021-10-03T21:19:00Z,27.2129,-90.2727,2.0,29.1,11111222
BP,ioos:station:wmo:42369:1,2021-10-03T21:39:00Z,27.2129,-90.2728,2.0,29.1,11111222
BP,ioos:station:wmo:42369:1,2021-10-03T21:59:00Z,27.2129,-90.2728,2.0,29.3,11111222
BP,ioos:station:wmo:42369:1,2021-10-03T22:19:00Z,27.2129,-90.2728,2.0,29.3,11111222
BP,ioos:station:wmo:42369:1,2021-10-03T22:39:00Z,27.2129,-90.2728,2.0,29.3,11111222
BP,ioos:station:wmo:42369:1,2021-10-03T22:59:00Z,27.2129,-90.2728,2.0,29.3,11111222
BP,ioos:station:wmo:42369:1,2021-10-03T23:19:00Z,27.2129,-90.2728,2.0,29.3,11111222
BP,ioos:station:wmo:42369:1,2021-10-03T23:39:00Z,27.2129,-90.2728,2.0,29.3,11111222
BP,ioos:station:wmo:42369:1,2021-10-03T23:59:00Z,27.2129,-90.2728,2.0,29.3,11111222
BP,ioos:station:wmo:42369:1,2021-10-04T00:19:00Z,27.2129,-90.2728,2.0,29.3,11111222
BP,ioos:station:wmo:42369:1,2021-10-04T00:39:00Z,27.2129,-90.2728,2.0,29.2,11111222
BP,ioos:station:wmo:42369:1,2021-10-04T00:59:00Z,27.2129,-90.2728,2.0,29.2,11111222
BP,ioos:station:wmo:42369:1,2021-10-04T01:19:00Z,27.2129,-90.2728,2.0,29.1,11111222
BP,ioos:station:wmo:42369:1,2021-10-04T01:39:00Z,27.2129,-90.2728,2.0,29.2,11111222
BP,ioos:station:wmo:42369:1,2021-10-04T01:59:00Z,27.2129,-90.2728,2.0,29.2,11111222
BP,ioos:station:wmo:42369:1,2021-10-04T02:19:00Z,27.2128,-90.2728,2.0,29.3,11111222
BP,ioos:station:wmo:42369:1,2021-10-04T02:39:00Z,27.2128,-90.2728,2.0,29.3,11111222
BP,ioos:station:wmo:42369:1,2021-10-04T02:59:00Z,27.2128,-90.2728,2.0,29.3,11111222
BP,ioos:station:wmo:42369:1,2021-10-04T03:19:00Z,27.2127,-90.2728,2.0,29.3,11111222
BP,ioos:station:wmo:42369:1,2021-10-04T03:39:00Z,27.2127,-90.2728,2.0,29.4,11111222
BP,ioos:station:wmo:42369:1,2021-10-04T03:59:00Z,27.2127,-90.2727,2.0,29.4,11111222
BP,ioos:station:wmo:42369:1,2021-10-04T04:19:00Z,27.2126,-90.2727,2.0,29.4,11111222
BP,ioos:station:wmo:42369:1,2021-10-04T04:39:00Z,27.2125,-90.2726,2.0,29.5,11111222
BP,ioos:station:wmo:42369:1,2021-10-04T04:59:00Z,27.2125,-90.2726,2.0,29.4,11111222
BP,ioos:station:wmo:42369:1,2021-10-04T05:19:00Z,27.2125,-90.2726,2.0,29.4,11111222
BP,ioos:station:wmo:42369:1,2021-10-04T05:39:00Z,27.2125,-90.2726,2.0,29.4,11111222
BP,ioos:station:wmo:42369:1,2021-10-04T05:59:00Z,27.2124,-90.2726,2.0,29.2,11111222
BP,ioos:station:wmo:42369:1,2021-10-04T06:19:00Z,27.2124,-90.2725,2.0,29.3,11111222
BP,ioos:station:wmo:42369:1,2021-10-04T06:39:00Z,27.2124,-90.2725,2.0,29.4,11111222
BP,ioos:station:wmo:42369:1,2021-10-04T06:59:00Z,27.2124,-90.2726,2.0,29.2,11111222
BP,ioos:station:wmo:42369:1,2021-10-04T07:19:00Z,27.2124,-90.2725,2.0,29.2,11111222
BP,ioos:station:wmo:42369:1,2021-10-04T07:39:00Z,27.2124,-90.2725,2.0,29.3,11111222
BP,ioos:station:wmo:42369:1,2021-10-04T07:59:00Z,27.2125,-90.2726,2.0,29.3,11111222
BP,ioos:station:wmo:42369:1,2021-10-04T08:19:00Z,27.2125,-90.2727,2.0,29.3,11111222
BP,ioos:station:wmo:42369:1,2021-10-04T08:39:00Z,27.2125,-90.2727,2.0,29.3,11111222
BP,ioos:station:wmo:42369:1,2021-10-04T08:59:00Z,27.2125,-90.2727,2.0,29.3,11111222
BP,ioos:station:wmo:42369:1,2021-10-04T09:19:00Z,27.2125,-90.2727,2.0,29.3,11111222
BP,ioos:station:wmo:42369:1,2021-10-04T09:39:00Z,27.2125,-90.2727,2.0,29.3,11111222
BP,ioos:station:wmo:42369:1,2021-10-04T09:59:00Z,27.2126,-90.2728,2.0,29.3,11111222
BP,ioos:station:wmo:42369:1,2021-10-04T10:19:00Z,27.2127,-90.2728,2.0,29.3,11111222
BP,ioos:station:wmo:42369:1,2021-10-04T10:39:00Z,27.2127,-90.2729,2.0,29.3,11111222
BP,ioos:station:wmo:42369:1,2021-10-04T10:59:00Z,27.2127,-90.2729,2.0,29.3,11111222
BP,ioos:station:wmo:42369:1,2021-10-04T11:19:00Z,27.2127,-90.2729,2.0,29.4,11111222
BP,ioos:station:wmo:42369:1,2021-10-04T11:39:00Z,27.2126,-90.2729,2.0,29.4,11111222
BP,ioos:station:wmo:42369:1,2021-10-04T11:59:00Z,27.2126,-90.2729,2.0,29.4,11111222
BP,ioos:station:wmo:42369:1,2021-10-04T12:19:00Z,27.2126,-90.2728,2.0,29.3,11111222
BP,ioos:station:wmo:42369:1,2021-10-04T12:39:00Z,27.2125,-90.2728,2.0,29.3,11111222
BP,ioos:station:wmo:42369:1,2021-10-04T12:59:00Z,27.2126,-90.2728,2.0,29.2,11111222
BP,ioos:station:wmo:42369:1,2021-10-04T13:19:00Z,27.2126,-90.2728,2.0,29.2,11111222
BP,ioos:station:wmo:42369:1,2021-10-04T13:39:00Z,27.2126,-90.2728,2.0,29.2,11111222
BP,ioos:station:wmo:42369:1,2021-10-04T13:59:00Z,27.2125,-90.2728,2.0,29.1,11111222
BP,ioos:station:wmo:42369:1,2021-10-04T14:19:00Z,27.2125,-90.2728,2.0,29.2,11111222
BP,ioos:station:wmo:42369:1,2021-10-04T14:39:00Z,27.2125,-90.2727,2.0,29.1,11111222
BP,ioos:station:wmo:42369:1,2021-10-04T14:59:00Z,27.2124,-90.2727,2.0,29.1,11111222
BP,ioos:station:wmo:42369:1,2021-10-04T15:19:00Z,27.2123,-90.2726,2.0,29.1,11111222
BP,ioos:station:wmo:42369:1,2021-10-04T15:39:00Z,27.2123,-90.2726,2.0,29.1,11111222
BP,ioos:station:wmo:42369:1,2021-10-04T15:59:00Z,27.2122,-90.2726,2.0,29.2,11111222
BP,ioos:station:wmo:42369:1,2021-10-04T16:19:00Z,27.2121,-90.2725,2.0,29.3,11111222
BP,ioos:station:wmo:42369:1,2021-10-04T16:39:00Z,27.2121,-90.2725,2.0,29.3,11111222
BP,ioos:station:wmo:42369:1,2021-10-04T16:59:00Z,27.2120,-90.2723,2.0,29.3,11111222
BP,ioos:station:wmo:42369:1,2021-10-04T17:19:00Z,27.2120,-90.2723,2.0,29.3,11111222
BP,ioos:station:wmo:42369:1,2021-10-04T17:39:00Z,27.2120,-90.2724,2.0,29.3,11111222
BP,ioos:station:wmo:42369:1,2021-10-04T17:59:00Z,27.2120,-90.2724,2.0,29.3,11111222
BP,ioos:station:wmo:42369:1,2021-10-04T18:19:00Z,27.2121,-90.2725,2.0,29.3,11111222
BP,ioos:station:wmo:42369:1,2021-10-04T18:39:00Z,27.2121,-90.2725,2.0,29.3,11111222
BP,ioos:station:wmo:42369:1,2021-10-04T18:59:00Z,27.2121,-90.2724,2.0,29.3,11111222
BP,ioos:station:wmo:42369:1,2021-10-04T19:19:00Z,27.2121,-90.2723,2.0,29.3,11111222
BP,ioos:station:wmo:42369:1,2021-10-04T19:39:00Z,27.2120,-90.2723,2.0,29.3,11111222
BP,ioos:station:wmo:42369:1,2021-10-04T19:59:00Z,27.2120,-90.2723,2.0,29.3,11111222
BP,ioos:station:wmo:42369:1,2021-10-04T20:19:00Z,27.2119,-90.2723,2.0,29.3,11111222
BP,ioos:station:wmo:42369:1,2021-10-04T20:39:00Z,27.2119,-90.2722,2.0,29.4,11111222
BP,ioos:station:wmo:42369:1,2021-10-04T20:59:00Z,27.2119,-90.2722,2.0,29.4,11111222
BP,ioos:station:wmo:42369:1,2021-10-04T21:19:00Z,27.2118,-90.2721,2.0,29.4,11111222
BP,ioos:station:wmo:42369:1,2021-10-04T21:39:00Z,27.2118,-90.2721,2.0,29.4,11111222